Weather Roundup
Issued by NWS

Home | Current Version | Previous Version | Graphics & Text | Print | Product List | Glossary Off
Versions: 1 2 3 4 5 6 7 8 9 10 11 12 13 14 15 16 17 18 19 20 21 22 23 24 25 26 27 28 29 30 31 32 33 34 35 36 37 38 39 40 41 42 43 44 45 46 47 48 49 50

828
NZUS93 KARX 251810
HRRWXR

CURRENT HOURLY OBSERVATIONS ACROSS
MUCH OF THE UPPER MISSISSIPPI VALLEY
NATIONAL WEATHER SERVICE LA CROSSE WI
100 PM CDT WED APR 25 2018


...SOUTHEAST MINNESOTA...


CITY           SKY/WX    TMP DP  RH WIND       PRES   REMARKS
ROCHESTER      FAIR      54  32  43 N9        30.16F
ROCHESTER/MAYO FAIR      52  28  38 N3        30.16F
WINONA         FAIR      54  32  43 N6        30.14F
AUSTIN         FAIR      52  34  50 NW5       30.16F
ALBERT LEA     FAIR      52  30  43 N9        30.16F
DODGE CENTER   FAIR      50  30  46 N9        30.16F
PRESTON        FAIR      52  31  44 N10       30.15F
OWATONNA       FAIR      52  30  43 N7        30.17F
FARIBAULT      NOT AVBL
$$

...ELSEWHERE IN MINNESOTA...


CITY           SKY/WX    TMP DP  RH WIND       PRES   REMARKS
MINNEAPOLIS    FAIR      54  25  32 CALM      30.18F
INTNL FALLS    FAIR      58  26  29 SW14      30.04F
DULUTH         FAIR      51  24  34 CALM      30.13F
RED WING       FAIR      54  23  30 SE10      30.16F
REDWOOD FALLS  SUNNY     50  30  46 VRB5      30.19F
MANKATO        FAIR      50  30  46 NW7       30.19F
WORTHINGTON    SUNNY     51  29  42 NW7       30.20F
FAIRMONT       SUNNY     49  36  61 N8        30.19F
$$

...SOUTHWEST WISCONSIN...


CITY           SKY/WX    TMP DP  RH WIND       PRES   REMARKS
LA CROSSE      FAIR      54  31  41 NW8       30.14F
PRAIRIE DU CHI FAIR      56  28  34 W12       30.12F
BOSCOBEL       FAIR      59  33  37 NW10      30.12F
LONE ROCK      FAIR      58  31  35 N10       30.12F
PLATTEVILLE    FAIR      56  33  41 N9        30.12F
FORT MC COY    FAIR      54  31  41 NE5       30.14F
CAMP DOUGLAS   SUNNY     55  30  38 W9        30.12F
MAUSTON-NEW LI FAIR      53  31  43 NW8       30.12F
VIROQUA        FAIR      53  35  49 N8        30.13F
WIS DELLS      FAIR      54  25  32 N7        30.11F
$$

...ELSEWHERE IN WISCONSIN...


CITY           SKY/WX    TMP DP  RH WIND       PRES   REMARKS
MILWAUKEE      FAIR      47  34  60 NE20G28   30.11F
MADISON        FAIR      54  31  41 NE7       30.10F
GREEN BAY      FAIR      48  33  56 VRB5      30.12F
EAU CLAIRE     FAIR      51  27  39 CALM      30.15F
BLACK RVR FLS  FAIR      55  25  31 CALM      30.14F
MEDFORD        FAIR      47  31  53 NW6       30.13F
WAUSAU         FAIR      49  27  42 N7        30.11F
WIS RAPIDS     FAIR      51  29  42 NW6       30.14F
MARSHFIELD     FAIR      49  31  49 MISG      30.12F
RICE LAKE      FAIR      48  28  45 NW5       30.19F
$$

...NORTHEAST IOWA...


CITY           SKY/WX    TMP DP  RH WIND       PRES   REMARKS
WATERLOO       FAIR      59  32  36 N14       30.13F
DUBUQUE        FAIR      57  33  40 VRB7      30.11F
DECORAH        FAIR      54  32  43 N9G15     30.13F
MASON CITY     SUNNY     55  35  47 N6        30.17F
CHARLES CITY   FAIR      55  32  41 N8        30.15F
OELWEIN        FAIR      57  32  38 N10G20    30.13F
$$

...ELSEWHERE IN IOWA...


CITY           SKY/WX    TMP DP  RH WIND       PRES   REMARKS
DES MOINES     PTSUNNY   61  30  31 N10       30.14F
IOWA CITY      FAIR      60  34  37 N8        30.12F
FORT DODGE     SUNNY     56  34  43 VRB6      30.17F
MARSHALLTOWN   SUNNY     60  32  34 N12       30.13F
CEDAR RAPIDS   FAIR      61  32  33 VRB7      30.10F
$$

...NORTHERN ILLINOIS...


CITY           SKY/WX    TMP DP  RH WIND       PRES   REMARKS
CHICAGO-OHARE  FAIR      52  30  43 NE18G24   30.09F
CHICAGO-MIDWAY FAIR      53  31  42 NE17G25   30.10F
MOLINE         FAIR      63  37  38 N9        30.09F
ROCKFORD       FAIR      57  31  37 NE16      30.11F
PEORIA           N/A     60  40  47 NE8       30.07F
$$

NOTE: "FAIR" INDICATES FEW OR NO CLOUDS BELOW 12,000 FEET WITH NO
SIGNIFICANT WEATHER AND/OR OBSTRUCTIONS TO VISIBILITY. WIND
SPEEDS ARE IN MILES-PER-HOUR.




USA.gov is the U.S. government's official web portal to all federal, state and local government web resources and services.